OBJECT AE, 57194

Orbit data source: Space-Track

You're viewing an Uncataloged Satellite

Recently launched and/or uncataloged satellites may have evolving metadata. Metadata may include but not limited to: Owner, Maufacturer, Bus, Motor, and Mission.

OBJECT AE, 57194 is a satellite in SSO that was launched on Tue, 27 Jun 2023 UTC via a SOYUZ-2-1B launch vehicle from the Vostochny Cosmodrome (VOSTO). Unknown objects in Earth's orbit typically refer to objects detected orbiting the Earth but have not yet been identified or cataloged. These objects could be anything from previously untracked satellites, spent rocket stages, debris from satellite collisions, or even natural meteoroids temporarily captured by Earth's gravity.

Loading next visibility...
Identifier
57194, 2023-091AE
Orbit
SSO
Country
Flag of TBDTBD
Related business
Manufacturer
Sputniks
Mission
Operational Commercial Communications
Bus & Motor
CUBESAT 3U?, Unknown motor
Mass
3 kg wet, 3 kg dry
Launch date (UTC)
2023-06-27 (2 years ago)
Launch vehicle
SOYUZ-2-1B
Launch site
Vostochny Cosmodrome (VOSTO)
Object type
Unknown
Shape & HBR
Box, 0.1 m
Radar Cross Section
0.035 m², Small (<0.1 m²)

Expand to show TLE details & history
Last TLE update: 7 hours ago

TLE from 7 hours ago
0 OBJECT AE
1 57194U 23091AE  25304.66838465  .00008447  00000-0  37280-3 0  9997
2 57194  97.5411   1.8452 0012792 180.2098 179.9135 15.21943453129479
Epoch: 2025-10-31T16:02Z
TLE epoch observation values (Epoch: 2025-10-31T16:02:28.433Z)
Latitude
-0.00001°
Longitude
81.01722°
Altitude
511.869 km
Speed
7.603 km/s
True Right ascension
00h 07m 22s
True Declination
0° 00' 00"
Sunlit
Object was in full shadow at epoch
Visualization orbit readout
Latitude
Unknown
Longitude
Unknown
Altitude
Unknown
Speed
Unknown
Apparent Right ascension
Unknown
Apparent Declination
Unknown
Sunlit
N/A
Visualization observer readout
Local Sidereal Time
18:24:09
Azimuth
Unknown
Elevation
Unknown
Doppler factor
Unknown
Orbital elements
Apogee altitude
505.743 km
Perigee altitude
488.153 km
Semi-major axis
6,875.085 km
Eccentricity
0.00128
Inclination
97.5411°
RAAN
1.8452°
Arg. of periapsis
180.2098°
True anomaly
179.91372°
Mean anomaly
179.9135°
Eccentric anomaly
179.91361°
Mean motion
3.80738 °/min
Orbital period
94.55 mins
BSTAR
0.0003728
Loading maneuver chart data...
Computing Atmospheric mass density...
Loading historical data...
Loading historical data...
Loading historical data...
Loading historical data...
Loading historical data...
Loading historical data...
Loading historical data...

Documentation

Showing up to 5 results
|